Regional Weather Roundup
Issued by NWS

Home | Current Version | Previous Version | Graphics & Text | Print | Product List | Glossary On
Versions: 1 2 3 4 5 6 7 8 9 10 11 12 13 14 15 16 17 18 19 20 21 22 23 24 25 26 27 28 29 30 31 32 33 34 35 36 37 38 39 40 41 42 43 44 45 46 47 48 49 50
000
ASUS43 KBIS 210310
RWRND

NORTH DAKOTA REGIONAL WEATHER ROUNDUP
NATIONAL WEATHER SERVICE BISMARCK ND
1000 PM CDT SUN APR 20 2014

NOTE: "FAIR" INDICATES FEW OR NO CLOUDS BELOW 12,000 FEET WITH NO
SIGNIFICANT WEATHER AND/OR OBSTRUCTIONS TO VISIBILITY.


NDZ001>003-009>011-017-210400-
NORTHWEST NORTH DAKOTA

CITY           SKY/WX    TMP DP  RH WIND       PRES   REMARKS
WILLISTON      CLEAR     48  28  46 W9        30.00R
MINOT          CLEAR     51  30  44 W8        29.94R
MINOT AFB      CLEAR     53  33  47 W21G29    29.94R
$$

NDZ018>021-031>035-040>046-210400-
SOUTHWEST NORTH DAKOTA

CITY           SKY/WX    TMP DP  RH WIND       PRES   REMARKS
BISMARCK       PTCLDY    59  25  27 NW8       29.99R
DICKINSON      CLEAR     46  22  38 W8        30.03R
GARRISON         N/A     50  30  46 NW13      29.97R
HETTINGER ARPT CLEAR     40  21  46 NW3       30.07R
$$

NDZ004>008-012>016-024-026-027-054-210400-
NORTHEAST NORTH DAKOTA

CITY           SKY/WX    TMP DP  RH WIND       PRES   REMARKS
GRAND FORKS    CLOUDY    61  34  36 NW14      29.87R
GRND FRKS AFB  MOCLDY    60  33  37 NW7       29.88R
DEVILS LAKE    MOCLDY    52  36  54 W8        29.91R
$$

NDZ022-023-025-028>030-036>039-047>053-210400-
SOUTHEAST NORTH DAKOTA

CITY           SKY/WX    TMP DP  RH WIND       PRES   REMARKS
FARGO          PTCLDY    65  36  34 S15       29.86F
JAMESTOWN      PTCLDY    56  34  43 NW9       29.92R
$$




USA.gov is the U.S. government's official web portal to all federal, state and local government web resources and services.